Regional Weather Roundup
Issued by NWS Newport/Morehead, NC

Current Version | Previous Version | Graphics & Text | Print | Product List | Glossary Off
Versions: 1 2 3 4 5 6 7 8 9 10 11 12 13 14 15 16 17 18 19 20 21 22 23 24 25 26 27 28 29 30 31 32 33 34 35 36 37 38 39 40 41 42 43 44 45 46 47 48 49 50

000
ASUS42 KMHX 290322
RWRMHX
WEATHER ROUNDUP FOR EASTERN NORTH CAROLINA
NATIONAL WEATHER SERVICE NEWPORT/MOREHEAD CITY NC
1100 PM EDT MON JUL 28 2014

NOTE: "FAIR" INDICATES FEW OR NO CLOUDS BELOW 12,000 FEET
WITH NO SIGNIFICANT WEATHER AND/OR OBSTRUCTIONS TO VISIBILITY

NCZ015>017-031-032-045>047-102-103-290400-
NORTH COAST

CITY           SKY/WX    TMP DP  RH WIND       PRES   REMARKS
EDENTON        CLEAR     73  65  75 NW3       29.82R
ELIZABETH CITY CLEAR     72  62  71 W7        29.80S
KITTY HAWK     CLEAR     79  62  55 NW6       29.80R
MANTEO         NOT AVBL

$$

NCZ045>047-081-094-103-104-290400-
CENTRAL COAST

CITY           SKY/WX    TMP DP  RH WIND       PRES   REMARKS
FRISCO         CLEAR     80  75  84 NW8       29.80R
SWANQUARTER      N/A     77 N/A N/A W5        29.79R

$$

NCZ095-097-098-100-101-290400-
SOUTHERN COAST

CITY           SKY/WX    TMP DP  RH WIND       PRES   REMARKS
BEAUFORT       MOCLDY    79  74  84 NW9       29.82R
CEDAR ISLAND     N/A     77 N/A N/A W6        29.85S
JACKSONVILLE   PTCLDY    76  73  91 W6        29.82S
NEWPORT        NOT AVBL
PINEY ISLAND   CLEAR     78  76  93 W9        29.81R
WILMINGTON     MOCLDY    74  70  87 E6        29.82F


$$

NCZ011>013-027>030-043-044-078>080-089-090>093-098-290400-
COASTAL PLAIN

CITY           SKY/WX    TMP DP  RH WIND       PRES   REMARKS
AHOSKIE        CLEAR     70  63  78 CALM      29.83S
CLINTON        PTCLDY    75  70  83 CALM      29.85S
ELIZABETHTOWN  CLEAR     74  73  97 CALM      29.85S
GOLDSBORO      PTCLDY    79  67  67 N3        29.83R
GREENVILLE     CLEAR     73  68  83 CALM      29.86S
HAVELOCK       PTCLDY    75  72  90 NW3       29.83R
KENANSVILLE    PTCLDY    72  68  89 CALM      29.86R
KINSTON        CLEAR     74  68  83 N3        29.84F
NEW BERN       CLEAR     76  72  87 CALM      29.83S
RICHLANDS      CLOUDY    73  70  88 CALM      29.84S VSB 1/2
ROANOKE RAPIDS NOT AVBL
ROCKY MOUNT    CLEAR     75  61  61 NW3       29.85R
WASHINGTON     CLEAR     74  65  71 NW3       29.83S
WHITEVILLE     MOCLDY    74  72  95 S3        29.85R

$$

AMZ130-135-150-152-154-156-158-170-250-252-270-ANZ085-086-088-633-658-670-290400-
MARINE OBSERVATIONS

STATION/POSITION TIME  TEMP    WIND        PRES    WAVE   SWELL
                       AIR SEA DIR/SP/G            HT/PER HT/PER
                 (UTC) (F)     (DEG/KT/KT) (MB)    (FT/S) (FT/S)
CHESAPEAKE LIGHT NOT AVBL
BUOY 44014       0300   80 78  280/ 14/ 17 1007.4    4/ 7   2/ 8
DUCK             0300   79 60  300/ 14/ 16 1008.0
2E DUCK          0300                        N/A     1/ 8
OREGON INLET     0300   81 84  310/  9/ 12 1009.0
BUOY 44095       0300      79                N/A     3/ 7
20E OREGON INLET NOT AVBL
HATTERAS CG      0300   80 82  300/ 10/ 13 1009.7
DIAMOND BUOY     0300          VRB 14/ 16  1009.0    3/ 8   2/ 8
CAPE LOOKOUT     0300   79     270/ 12/ 13 1009.4
BEAUFORT LAB     0300   79 82  280/  5/  9 1009.4
30 SE NEW RIVER  0300   80 81  250/ 16/ 17 1009.9    4/ 6   2/ 9
5 SE WRIGHTSVILL 0300   76 82  290/  6/  8   N/A
BUOY 41002       0249   82 81  230/ 19/ 23 1013.2    6/ 7
BUOY 41004       0300   85 84  220/ 17/ 19 1009.2    5/ 5   2/ 9

$$



USA.gov is the U.S. government's official web portal to all federal, state and local government web resources and services.